Location: Lansingburgh
(42.7845°N, 73.6696°W)
Time: 07:25:09
(UTC+00:00)

Cosmos 2218 Rocket - Pass Details

Date: 24 January 2020
Orbit: 956 x 1006 km, 82.9° (Epoch: 17 February)

Event Time Altitude Azimuth Distance (km) Brightness Sun altitude
Rises 23:08:41 0° 181° (S) 3,687 7.2 -13.2°
Reaches altitude 10° 23:11:11 10° 180° (S) 2,749 6.5 -13.7°
Maximum altitude 23:17:30 78° 95° (E) 1,026 4.0 -14.8°
Drops below altitude 10° 23:23:55 10° 10° (N) 2,789 6.2 -15.9°
Sets 23:26:28 0° 10° (N) 3,745 6.8 -16.4°
